Aérodrome :
LOGIN :

S'inscrire | Disclaimer

   EN    FR    IT 

 










Légende :    VFR   VFR Marginal   IFR   IFR Intensif   IFR Très Intensif
Visi : 
Plafond : 
>= 8 km
>= 3000ft
5 à 8 km
1000 à 3000 ft
1500m à 5 km
500 à 1000 ft
800 à 1500m
200 à 500 ft
< 800m
< 200 ft
Symboles :   Orages  Brouillard  Fortes neiges  Fortes précipitations  Vent > 20 kt
SIGMETs :   Divers  Orages  Givrage  Turbulence  Onde Orograph.  Cendres Volcan.






- Altitude de l'aérodrome : 268 ft
- Code IATA : BFS


EGAA - Belfast Aldergrove

DERNIER METAR :
  • 191120Z 10009KT 9999 FEW019 14/09 Q1025

METARs EXPIRÉS :
  • 191050Z 10011KT 9999 FEW021 14/09 Q1025
  • 191020Z 09010KT 9999 FEW021 13/09 Q1025
  • 190950Z 09010KT 9999 FEW020 13/09 Q1025
  • 190920Z 10008KT 070V140 9999 SCT016 13/10 Q1025
  • 190850Z 07009KT 9999 FEW017 12/10 Q1025

TAF TAF EGAA
Valide du 19 à 12h jusqu'au 20 à 12h UTC


191059Z 1912/2012 08009KT 9999 FEW015
PROB40
TEMPO 2001/2010 7000 BKN014



MET'MAP, la Météo Aéronautique d'un coup d'oeil ! - Copyright ORBIFLY Décembre 2007 - Disclaimer

ORBIFLY MET'MAP TEAM :

Programmation & Développement : Alexandra Zaïnal
Sur une idée originale de : Baudouin d'Aumeries
Assistance à la programmation : Marc-Olivier Méhu
Soutien technique & logistique : Manuel Goepfert

Contact : metmap@orbifly.com




SOURCES & CREDITS :

   NOAA